Weather past 2 weeks in Cayenne, French Guiana

Now
88 °F

Passing clouds.


Feels Like: 94 °F
Forecast: 79 / 85 °F
Wind: 15 mph from Northeast

Location: Cayenne / Rochambeau

Current Time: Nov 24, 2014 at 3:04:26 PM

Latest Report: Nov 24, 2014 at 2:30 PM


Visibility: N/A

Pressure: 29.83 "Hg

Humidity: 59%

Dew point: 72 °F

Location of CayenneLocation

Historic Weather in Cayenne — Graph

°F

Cayenne temperature yesterday

Maximum temperature yesterday: 90 °F (at 1:30 PM)
Minimum temperature yesterday: 75 °F (at 3:30 AM)
Average temperature yesterday: 81 °F

Past Weeks' High & Low Weather Summary

 TemperatureHumidityPressure
High90 °F (Nov 10, 1:00 PM)100% (Nov 10, 7:30 AM)29.98 "Hg (Nov 10, 7:30 AM)
Low73 °F (Nov 10, 5:00 AM)55% (Nov 10, 2:00 PM)29.74 "Hg (Nov 13, 3:00 PM)
Average80 °F82%29.84 "Hg
* Reported Nov 9 2:00 PM — Nov 24 2:00 PM, Cayenne, Weather by CustomWeather, © 2014

Note: Actual official high and low records may vary slightly from our data, if they occured in-between our weather recording intervals... More about our weather records

Advertising

Cayenne weather history for previous 24 hours

 ConditionsComfort  
Time TempWeatherWind HumidityBarometerVisibility
2:00 PM
Nov 24
88 °FPassing clouds.14 mph62%29.86 "HgN/A
1:30 PM88 °FWarm.14 mph59%29.86 "HgN/A
1:00 PM88 °FPassing clouds.13 mph59%29.89 "HgN/A
12:30 PM88 °FPassing clouds.15 mph62%29.89 "HgN/A
12:00 PM86 °FBroken clouds.14 mph66%29.89 "HgN/A
11:30 AM86 °FPartly sunny.14 mph66%29.92 "HgN/A
11:00 AM88 °FPartly sunny.9 mph62%29.92 "HgN/A
10:30 AM86 °FBroken clouds.10 mph66%29.92 "HgN/A
10:00 AM84 °FBroken clouds.12 mph70%29.92 "HgN/A
9:30 AM84 °FScattered clouds.8 mph70%29.92 "HgN/A
9:00 AM84 °FWarm.7 mph70%29.89 "HgN/A
8:30 AM82 °FPassing clouds.7 mph79%29.89 "HgN/A
8:00 AM81 °FPassing clouds.No wind84%29.89 "HgN/A
7:30 AM77 °FScattered clouds.No wind94%29.89 "HgN/A
7:00 AM75 °FPartly sunny.No wind94%29.86 "HgN/A
6:30 AM75 °FBroken clouds.1 mph94%29.86 "HgN/A
6:00 AM77 °FLight rain. Partly cloudy.2 mph89%29.86 "HgN/A
5:30 AM75 °FPassing clouds.3 mph94%29.86 "HgN/A
5:00 AM75 °FPassing clouds.3 mph94%29.86 "HgN/A
4:30 AM75 °FMild.No wind89%29.83 "HgN/A
4:00 AM75 °FPassing clouds.No wind89%29.83 "HgN/A
3:30 AM75 °FPassing clouds.2 mph89%29.83 "HgN/A
3:00 AM77 °FPassing clouds.2 mph83%29.83 "HgN/A
2:30 AM77 °FPassing clouds.3 mph83%29.86 "HgN/A
2:00 AM79 °FPassing clouds.3 mph79%29.86 "HgN/A
1:30 AM79 °FPassing clouds.5 mph79%29.86 "HgN/A
1:00 AM79 °FPassing clouds.5 mph84%29.89 "HgN/A
12:30 AM81 °FPassing clouds.6 mph79%29.89 "HgN/A
12:00 AM81 °FPassing clouds.7 mph79%29.89 "HgN/A
11:30 PM
Nov 23
81 °FPassing clouds.7 mph79%29.89 "HgN/A
11:00 PM81 °FPassing clouds.8 mph79%29.89 "HgN/A
10:30 PM81 °FPartly cloudy.9 mph79%29.89 "HgN/A
10:00 PM81 °FPartly cloudy.8 mph79%29.89 "HgN/A
9:30 PM81 °FPassing clouds.8 mph79%29.89 "HgN/A
8:30 PM81 °FPassing clouds.9 mph79%29.86 "HgN/A
8:00 PM81 °FPartly cloudy.8 mph79%29.86 "HgN/A
7:30 PM81 °FWarm.6 mph79%29.86 "HgN/A
7:00 PM82 °FPassing clouds.12 mph74%29.86 "HgN/A
6:30 PM82 °FPartly cloudy.8 mph79%29.83 "HgN/A
6:00 PM82 °FPartly sunny.9 mph79%29.83 "HgN/A
5:30 PM82 °FPassing clouds.9 mph79%29.83 "HgN/A
5:00 PM82 °FPassing clouds.13 mph74%29.83 "HgN/A
4:30 PM84 °FLight rain. Broken clouds.16 mph74%29.83 "HgN/A
4:00 PM84 °FBroken clouds.16 mph70%29.83 "HgN/A
3:30 PM86 °FPartly sunny.14 mph70%29.83 "HgN/A
3:00 PM88 °FPartly sunny.14 mph62%29.83 "HgN/A
Weather by CustomWeather, © 2014

See weather overviewHow to use our weather pages